User: anonymous   Login
Location: Unspecified
(0.0000°N, 0.0000°E)
Time: 05:07:14
(UTC+00:00)
Language:

SAR-Lupe-2 - Orbit

View from above orbital plane
View from above orbital plane
View from above satellite
View from above satellite

Ground track
Ground track

The orbit data is extracted from the following two-line orbital elements,

1 31797U 07030A   20021.23608253 0.00000800  00000-0  29680-4 0    01
2 31797  98.1490 236.4234 0001394  37.1199 322.8799 15.27626635    04
Epoch (UTC): 21 January 2020 05:39:57
Eccentricity: 0.0001394
inclination: 98.1490°
perigee height: 482 km
apogee height: 484 km
right ascension of ascending node: 236.4234°
argument of perigee: 37.1199°
revolutions per day: 15.27626635
mean anomaly at epoch: 322.8799°
orbit number at epoch: 0

The dashed part of the orbit path shows where the satellite is in the earth's shadow,  

DLR